Location: Palmerston North
(40.3500°S, 175.6170°E)
Time: 05:49:20
(UTC+13:00)

ISS - Pass Details

Date: 28 October 2019
Orbit: 412 x 421 km, 51.6° (Epoch: 13 November)

Event Time Altitude Azimuth Distance (km) Brightness Sun altitude
Rises 21:41:42 0° 230° (SW) 2,386 1.8 -19.4°
Reaches altitude 10° 21:44:35 10° 204° (SSW) 1,521 0.0 -19.8°
Maximum altitude 21:46:31 14° 169° (S) 1,289 -1.0 -20.1°
Enters shadow 21:48:08 11° 140° (SE) 1,455 -1.0 -20.3°
